Location: Baumgartsau
(48.4586°N, 14.0864°E)
Time: 18:57:39
(UTC+00:00)

Cosmos 2333 Rocket - Pass Details

Date: 09 April 2020
Orbit: 841 x 861 km, 70.8° (Epoch: 03 June)

Event Time Altitude Azimuth Distance (km) Brightness Sun altitude
Rises 23:35:56 0° 332° (NNW) 3,407 6.0 -33.1°
Reaches altitude 10° 23:38:24 10° 334° (NNW) 2,470 5.2 -33.0°
Enters shadow 23:42:32 49° 348° (NNW) 1,079 2.9 -32.9°
